| time (UTC) | temp C | wind direction | speed KPH | gust KPH | rain 1hr cm | rain 24hr cm | rain mn cm | humidity % | barometer mb |
| 20260903050033 | 22 | 77 | 0.0 | 0.0 | 0.00 | 0.28 | 0.00 | 94 | 1017.1 |
| 20260903045753 | 22 | 77 | 0.0 | 0.0 | 0.00 | 0.28 | 0.00 | 94 | 1017.2 |
| 20260903045020 | 22 | 77 | 0.0 | 1.6 | 0.00 | 0.28 | 0.00 | 94 | 1017.3 |
| 20260903044514 | 22 | 77 | 0.0 | 1.6 | 0.00 | 0.28 | 0.00 | 94 | 1017.2 |
| 20260903044009 | 22 | 77 | 0.0 | 0.0 | 0.00 | 0.28 | 0.00 | 94 | 1017.2 |
| 20260903043723 | 22 | 77 | 0.0 | 1.6 | 0.00 | 0.28 | 0.00 | 94 | 1017.1 |
| 20260903042958 | 22 | 77 | 0.0 | 1.6 | 0.00 | 0.28 | 0.00 | 94 | 1017.2 |
| 20260903042712 | 22 | 77 | 0.0 | 0.0 | 0.00 | 0.28 | 0.00 | 94 | 1017.2 |
| 20260903042209 | 22 | 77 | 0.0 | 1.6 | 0.00 | 0.28 | 0.00 | 93 | 1017.2 |
| 20260903041439 | 22 | 77 | 0.0 | 1.6 | 0.00 | 0.28 | 0.00 | 93 | 1017.3 |
| 20260903040933 | 22 | 77 | 0.0 | 0.0 | 0.00 | 0.28 | 0.00 | 93 | 1017.3 |
| 20260903040427 | 22 | 77 | 0.0 | 1.6 | 0.00 | 0.28 | 0.00 | 93 | 1017.4 |
| 20260903035921 | 22 | 77 | 0.0 | 1.6 | 0.00 | 0.28 | 0.28 | 93 | 1017.4 |
| 20260903035415 | 22 | 77 | 0.0 | 1.6 | 0.00 | 0.28 | 0.28 | 93 | 1017.3 |
| 20260903035401 | 22 | 77 | 0.0 | 1.6 | 0.00 | 0.28 | 0.28 | 93 | 1017.4 |
| 20260903034402 | 22 | 10 | 0.0 | 1.6 | 0.00 | 0.28 | 0.28 | 93 | 1017.3 |
| 20260903033857 | 22 | 10 | 0.0 | 1.6 | 0.00 | 0.28 | 0.28 | 93 | 1017.3 |
| 20260903033614 | 22 | 10 | 0.0 | 0.0 | 0.00 | 0.28 | 0.28 | 93 | 1017.2 |
| 20260903032845 | 22 | 10 | 0.0 | 0.0 | 0.00 | 0.28 | 0.28 | 93 | 1017.1 |
| 20260903032339 | 22 | 10 | 0.0 | 0.0 | 0.00 | 0.28 | 0.28 | 93 | 1017.1 |
| 20260903031833 | 22 | 10 | 0.0 | 0.0 | 0.00 | 0.28 | 0.28 | 93 | 1017.2 |
| 20260903031327 | 22 | 10 | 0.0 | 0.0 | 0.00 | 0.28 | 0.28 | 93 | 1017.1 |
| 20260903031047 | 22 | 10 | 0.0 | 0.0 | 0.00 | 0.28 | 0.28 | 93 | 1017.0 |
| 20260903030534 | 22 | 10 | 0.0 | 0.0 | 0.00 | 0.28 | 0.28 | 93 | 1017.0 |
| 20260903025809 | 22 | 10 | 0.0 | 0.0 | 0.00 | 0.28 | 0.28 | 93 | 1016.9 |
| 20260903025527 | 22 | 10 | 0.0 | 0.0 | 0.00 | 0.28 | 0.28 | 93 | 1016.9 |
| 20260903024959 | 22 | 10 | 0.0 | 0.0 | 0.00 | 0.28 | 0.28 | 93 | 1016.9 |
| 20260903024841 | 22 | 10 | 0.0 | 0.0 | 0.00 | 0.28 | 0.28 | 93 | 1016.9 |
| 20260903023745 | 22 | 10 | 0.0 | 0.0 | 0.00 | 0.28 | 0.28 | 93 | 1016.9 |
| 20260903023239 | 22 | 10 | 0.0 | 0.0 | 0.00 | 0.28 | 0.28 | 93 | 1016.8 |
| 20260903023214 | 22 | 10 | 0.0 | 0.0 | 0.00 | 0.28 | 0.28 | 93 | 1016.8 |
| 20260903022227 | 23 | 10 | 0.0 | 0.0 | 0.00 | 0.28 | 0.28 | 93 | 1016.8 |
| 20260903021721 | 23 | 10 | 0.0 | 0.0 | 0.00 | 0.28 | 0.28 | 93 | 1016.9 |
| 20260903021448 | 23 | 10 | 0.0 | 0.0 | 0.00 | 0.28 | 0.28 | 93 | 1016.9 |
| 20260903020930 | 23 | 10 | 0.0 | 1.6 | 0.00 | 0.28 | 0.28 | 93 | 1016.9 |
| 20260903020203 | 23 | 10 | 0.0 | 1.6 | 0.00 | 0.28 | 0.28 | 93 | 1016.9 |
| 20260903015657 | 23 | 10 | 0.0 | 0.0 | 0.00 | 0.28 | 0.28 | 93 | 1017.1 |
| 20260903015157 | 23 | 10 | 0.0 | 0.0 | 0.00 | 0.28 | 0.28 | 93 | 1017.2 |
| 20260903014654 | 23 | 10 | 0.0 | 0.0 | 0.00 | 0.28 | 0.28 | 93 | 1017.2 |
| 20260903014154 | 23 | 10 | 0.0 | 0.0 | 0.00 | 0.28 | 0.28 | 93 | 1017.3 |
| 20260903013652 | 23 | 10 | 0.0 | 0.0 | 0.00 | 0.28 | 0.28 | 93 | 1017.3 |
| 20260903013149 | 23 | 10 | 0.0 | 0.0 | 0.00 | 0.28 | 0.28 | 93 | 1017.3 |
| 20260903012647 | 23 | 10 | 0.0 | 0.0 | 0.00 | 0.28 | 0.28 | 93 | 1017.3 |
| 20260903012147 | 23 | 10 | 0.0 | 0.0 | 0.00 | 0.28 | 0.28 | 93 | 1017.3 |
| 20260903011647 | 23 | 10 | 0.0 | 0.0 | 0.00 | 0.28 | 0.28 | 93 | 1017.4 |
| 20260903011411 | 23 | 10 | 0.0 | 1.6 | 0.00 | 0.28 | 0.28 | 93 | 1017.5 |
| 20260903010647 | 23 | 10 | 0.0 | 1.6 | 0.00 | 0.28 | 0.28 | 93 | 1017.3 |
| 20260903010147 | 23 | 346 | 0.0 | 1.6 | 0.00 | 0.28 | 0.28 | 93 | 1017.1 |
| 20260903005647 | 23 | 346 | 0.0 | 1.6 | 0.00 | 0.28 | 0.28 | 93 | 1017.3 |
| 20260903005145 | 23 | 59 | 0.0 | 3.2 | 0.00 | 0.28 | 0.28 | 93 | 1017.5 |
| 20260903004644 | 23 | 33 | 0.0 | 3.2 | 0.00 | 0.28 | 0.28 | 93 | 1017.5 |
| 20260903004357 | 24 | 86 | 0.0 | 0.0 | 0.00 | 0.28 | 0.28 | 93 | 1017.5 |
| 20260903003640 | 24 | 86 | 0.0 | 0.0 | 0.00 | 0.28 | 0.28 | 93 | 1017.5 |
| 20260903003139 | 24 | 86 | 0.0 | 0.0 | 0.00 | 0.28 | 0.28 | 93 | 1017.6 |
| 20260903002638 | 24 | 86 | 0.0 | 0.0 | 0.00 | 0.28 | 0.28 | 93 | 1017.7 |
| 20260903002136 | 24 | 86 | 0.0 | 0.0 | 0.00 | 0.28 | 0.28 | 93 | 1017.6 |
| 20260903001637 | 24 | 86 | 0.0 | 0.0 | 0.00 | 0.28 | 0.28 | 93 | 1017.5 |
| 20260903001132 | 24 | 86 | 0.0 | 0.0 | 0.00 | 0.28 | 0.28 | 93 | 1017.5 |
| 20260903000626 | 24 | 86 | 0.0 | 0.0 | 0.00 | 0.28 | 0.28 | 93 | 1017.6 |
| 20260903000125 | 24 | 86 | 0.0 | 0.0 | 0.00 | 0.28 | 0.28 | 92 | 1017.5 |
| 20260902235625 | 24 | 86 | 0.0 | 0.0 | 0.00 | 0.28 | 0.28 | 93 | 1017.5 |
| 20260902235124 | 24 | 86 | 0.0 | 0.0 | 0.00 | 0.28 | 0.28 | 92 | 1017.5 |
| 20260902234626 | 24 | 86 | 0.0 | 0.0 | 0.00 | 0.28 | 0.28 | 92 | 1017.6 |
| 20260902234123 | 24 | 86 | 0.0 | 0.0 | 0.00 | 0.28 | 0.28 | 92 | 1017.6 |
| 20260902233621 | 24 | 86 | 0.0 | 0.0 | 0.00 | 0.28 | 0.28 | 92 | 1017.5 |
| 20260902233118 | 24 | 86 | 0.0 | 0.0 | 0.00 | 0.28 | 0.28 | 93 | 1017.3 |
| 20260902232618 | 24 | 86 | 0.0 | 0.0 | 0.00 | 0.28 | 0.28 | 93 | 1017.1 |
| 20260902232333 | 24 | 86 | 0.0 | 0.0 | 0.00 | 0.28 | 0.28 | 93 | 1017.4 |
| 20260902231617 | 25 | 86 | 0.0 | 0.0 | 0.00 | 0.28 | 0.28 | 93 | 1017.6 |
| 20260902231116 | 25 | 86 | 0.0 | 0.0 | 0.00 | 0.28 | 0.28 | 93 | 1017.4 |
| 20260902230617 | 25 | 86 | 0.0 | 0.0 | 0.00 | 0.28 | 0.28 | 93 | 1017.8 |
| 20260902230550 | 25 | 86 | 0.0 | 0.0 | 0.00 | 0.28 | 0.28 | 93 | 1018.1 |
| 20260902225612 | 25 | 86 | 0.0 | 0.0 | 0.00 | 0.28 | 0.28 | 93 | 1018.0 |
| 20260902225602 | 25 | 86 | 0.0 | 0.0 | 0.00 | 0.28 | 0.28 | 93 | 1017.7 |
| 20260902224613 | 25 | 86 | 0.0 | 0.0 | 0.00 | 0.28 | 0.28 | 94 | 1017.8 |
| 20260902224111 | 25 | 86 | 0.0 | 0.0 | 0.00 | 0.28 | 0.28 | 94 | 1018.0 |
| 20260902223830 | 25 | 86 | 0.0 | 0.0 | 0.00 | 0.28 | 0.28 | 94 | 1017.9 |
| 20260902223117 | 25 | 86 | 0.0 | 0.0 | 0.00 | 0.28 | 0.28 | 94 | 1017.8 |
| 20260902222842 | 25 | 86 | 0.0 | 0.0 | 0.00 | 0.28 | 0.28 | 93 | 1018.0 |
| 20260902222113 | 24 | 86 | 0.0 | 1.6 | 0.00 | 0.28 | 0.28 | 93 | 1017.7 |
| 20260902222048 | 25 | 86 | 0.0 | 1.6 | 0.00 | 0.28 | 0.28 | 93 | 1017.6 |
| 20260902221335 | 25 | 86 | 0.0 | 1.6 | 0.00 | 0.28 | 0.28 | 91 | 1017.7 |
| 20260902220614 | 25 | 86 | 0.0 | 1.6 | 0.00 | 0.28 | 0.28 | 91 | 1017.5 |
| 20260902220113 | 25 | 86 | 0.0 | 1.6 | 0.00 | 0.28 | 0.28 | 91 | 1017.2 |
| 20260902215613 | 25 | 86 | 0.0 | 1.6 | 0.00 | 0.28 | 0.28 | 91 | 1017.2 |
| 20260902215115 | 25 | 86 | 0.0 | 0.0 | 0.00 | 0.28 | 0.28 | 90 | 1017.3 |
| 20260902214611 | 25 | 86 | 0.0 | 0.0 | 0.00 | 0.28 | 0.28 | 90 | 1017.5 |
| 20260902214109 | 25 | 86 | 0.0 | 0.0 | 0.00 | 0.28 | 0.28 | 90 | 1017.6 |
| 20260902213606 | 25 | 86 | 0.0 | 0.0 | 0.00 | 0.28 | 0.28 | 90 | 1017.6 |
| 20260902213107 | 25 | 86 | 0.0 | 0.0 | 0.00 | 0.28 | 0.28 | 90 | 1017.8 |
| 20260902212606 | 25 | 86 | 0.0 | 1.6 | 0.00 | 0.28 | 0.28 | 89 | 1017.7 |
| 20260902212100 | 25 | 86 | 0.0 | 1.6 | 0.00 | 0.28 | 0.28 | 89 | 1017.8 |
| 20260902211552 | 25 | 86 | 0.0 | 3.2 | 0.03 | 0.28 | 0.28 | 89 | 1017.8 |
| 20260902211053 | 25 | 86 | 0.0 | 3.2 | 0.03 | 0.28 | 0.28 | 89 | 1018.0 |
| 20260902210550 | 25 | 86 | 0.0 | 1.6 | 0.03 | 0.28 | 0.28 | 88 | 1017.9 |
| 20260902210049 | 26 | 86 | 0.0 | 1.6 | 0.03 | 0.28 | 0.28 | 88 | 1018.1 |
| 20260902205546 | 26 | 86 | 0.0 | 1.6 | 0.08 | 0.28 | 0.28 | 88 | 1018.4 |
| 20260902205043 | 26 | 41 | 0.0 | 1.6 | 0.10 | 0.28 | 0.28 | 88 | 1018.4 |
| 20260902204544 | 26 | 92 | 0.0 | 1.6 | 0.13 | 0.28 | 0.28 | 87 | 1018.2 |
| 20260902204041 | 26 | 325 | 0.0 | 0.0 | 0.15 | 0.28 | 0.28 | 87 | 1018.3 |
| 20260902203805 | 26 | 325 | 0.0 | 0.0 | 0.23 | 0.28 | 0.28 | 86 | 1018.2 |
| 20260902203038 | 26 | 325 | 0.0 | 1.6 | 0.28 | 0.28 | 0.28 | 85 | 1017.8 |
| 20260902202535 | 27 | 49 | 0.0 | 1.6 | 0.28 | 0.28 | 0.28 | 85 | 1017.4 |
| 20260902202033 | 27 | 49 | 0.0 | 1.6 | 0.28 | 0.28 | 0.28 | 83 | 1017.4 |
| 20260902201755 | 27 | 337 | 0.0 | 1.6 | 0.25 | 0.25 | 0.25 | 82 | 1017.8 |
| 20260902201027 | 28 | 337 | 0.0 | 4.8 | 0.25 | 0.25 | 0.25 | 81 | 1017.7 |
| 20260902200525 | 28 | 23 | 1.6 | 4.8 | 0.25 | 0.25 | 0.25 | 80 | 1018.1 |
| 20260902200242 | 28 | 103 | 0.0 | 1.6 | 0.25 | 0.25 | 0.25 | 77 | 1018.2 |
| 20260902195524 | 29 | 103 | 1.6 | 4.8 | 0.20 | 0.20 | 0.23 | 76 | 1018.3 |
| 20260902195021 | 30 | 105 | 1.6 | 9.7 | 0.18 | 0.18 | 0.18 | 74 | 1018.4 |
| 20260902194517 | 30 | 98 | 1.6 | 9.7 | 0.15 | 0.15 | 0.15 | 73 | 1018.8 |
| 20260902194017 | 31 | 37 | 1.6 | 3.2 | 0.13 | 0.13 | 0.13 | 76 | 1019.0 |
| 20260902193517 | 31 | 64 | 0.0 | 3.2 | 0.05 | 0.05 | 0.08 | 72 | 1018.4 |
| 20260902193236 | 31 | 144 | 1.6 | 6.4 | 0.00 | 0.00 | 0.00 | 66 | 1018.1 |
| 20260902192512 | 31 | 144 | 3.2 | 11.3 | 0.00 | 0.00 | 0.00 | 62 | 1018.3 |
| 20260902192012 | 33 | 159 | 4.8 | 11.3 | 0.00 | 0.00 | 0.00 | 58 | 1018.3 |
| 20260902191506 | 34 | 317 | 4.8 | 9.7 | 0.00 | 0.00 | 0.00 | 60 | 1017.9 |
| 20260902191000 | 34 | 155 | 3.2 | 9.7 | 0.00 | 0.00 | 0.00 | 60 | 1017.5 |
| 20260902190454 | 34 | 146 | 3.2 | 8.0 | 0.00 | 0.00 | 0.00 | 60 | 1017.2 |
| 20260902190436 | 33 | 121 | 3.2 | 6.4 | 0.00 | 0.00 | 0.00 | 63 | 1017.2 |
| 20260902185442 | 33 | 153 | 3.2 | 6.4 | 0.00 | 0.00 | 0.00 | 63 | 1017.3 |
| 20260902184936 | 32 | 142 | 3.2 | 6.4 | 0.00 | 0.00 | 0.00 | 63 | 1017.5 |
| 20260902184431 | 32 | 120 | 3.2 | 6.4 | 0.00 | 0.00 | 0.00 | 63 | 1017.6 |
| 20260902183924 | 33 | 130 | 3.2 | 6.4 | 0.00 | 0.00 | 0.00 | 60 | 1017.8 |
| 20260902183419 | 33 | 144 | 1.6 | 6.4 | 0.00 | 0.00 | 0.00 | 58 | 1017.8 |
| 20260902182912 | 35 | 110 | 1.6 | 6.4 | 0.00 | 0.00 | 0.00 | 56 | 1017.8 |
| 20260902182629 | 35 | 153 | 1.6 | 3.2 | 0.00 | 0.00 | 0.00 | 56 | 1017.7 |
| 20260902181901 | 35 | 81 | 1.6 | 4.8 | 0.00 | 0.00 | 0.00 | 56 | 1017.7 |
| 20260902181354 | 35 | 159 | 1.6 | 4.8 | 0.00 | 0.00 | 0.00 | 55 | 1017.6 |
| 20260902180848 | 36 | 120 | 1.6 | 4.8 | 0.00 | 0.00 | 0.00 | 54 | 1017.6 |
| 20260902180343 | 35 | 122 | 3.2 | 4.8 | 0.00 | 0.00 | 0.00 | 55 | 1017.7 |
| 20260902180104 | 35 | 163 | 1.6 | 11.3 | 0.00 | 0.00 | 0.00 | 57 | 1017.8 |
| 20260902175330 | 35 | 0 | 1.6 | 11.3 | 0.00 | 0.00 | 0.00 | 57 | 1017.9 |
| 20260902174825 | 33 | 21 | 1.6 | 3.2 | 0.00 | 0.00 | 0.00 | 61 | 1017.9 |
| 20260902174318 | 33 | 120 | 1.6 | 4.8 | 0.00 | 0.00 | 0.00 | 61 | 1018.0 |
| 20260902173812 | 33 | 36 | 1.6 | 6.4 | 0.00 | 0.00 | 0.00 | 59 | 1017.9 |
| 20260902173306 | 34 | 191 | 1.6 | 6.4 | 0.00 | 0.00 | 0.00 | 58 | 1018.0 |
| 20260902173026 | 35 | 72 | 1.6 | 4.8 | 0.00 | 0.00 | 0.00 | 58 | 1018.1 |
| 20260902172254 | 35 | 236 | 1.6 | 3.2 | 0.00 | 0.00 | 0.00 | 56 | 1018.1 |
| 20260902171748 | 33 | 88 | 0.0 | 3.2 | 0.00 | 0.00 | 0.00 | 61 | 1018.1 |
| 20260902171242 | 33 | 88 | 1.6 | 4.8 | 0.00 | 0.00 | 0.00 | 60 | 1018.2 |
| 20260902170738 | 33 | 326 | 1.6 | 4.8 | 0.00 | 0.00 | 0.00 | 59 | 1018.3 |
| 20260902170231 | 33 | 287 | 1.6 | 4.8 | 0.00 | 0.00 | 0.00 | 61 | 1018.3 |
| 20260902165724 | 33 | 236 | 1.6 | 4.8 | 0.00 | 0.00 | 0.00 | 63 | 1018.2 |
| 20260902165218 | 33 | 119 | 1.6 | 6.4 | 0.00 | 0.00 | 0.00 | 62 | 1018.3 |
| 20260902164712 | 33 | 261 | 1.6 | 6.4 | 0.00 | 0.00 | 0.00 | 61 | 1018.2 |
| 20260902164206 | 33 | 228 | 1.6 | 4.8 | 0.00 | 0.00 | 0.00 | 61 | 1018.2 |
| 20260902163701 | 33 | 265 | 1.6 | 4.8 | 0.00 | 0.00 | 0.00 | 61 | 1018.3 |
| 20260902163153 | 33 | 206 | 1.6 | 6.4 | 0.00 | 0.00 | 0.00 | 62 | 1018.3 |
| 20260902162648 | 32 | 261 | 1.6 | 6.4 | 0.00 | 0.00 | 0.00 | 62 | 1018.3 |
| 20260902162404 | 32 | 355 | 1.6 | 4.8 | 0.00 | 0.00 | 0.00 | 62 | 1018.4 |
| 20260902161637 | 33 | 108 | 1.6 | 4.8 | 0.00 | 0.00 | 0.00 | 61 | 1018.3 |
| 20260902161130 | 32 | 108 | 1.6 | 4.8 | 0.00 | 0.00 | 0.00 | 64 | 1018.3 |
| 20260902160625 | 32 | 264 | 1.6 | 4.8 | 0.00 | 0.00 | 0.00 | 63 | 1018.3 |
| 20260902160119 | 32 | 166 | 1.6 | 6.4 | 0.00 | 0.00 | 0.00 | 64 | 1018.3 |
| 20260902155612 | 31 | 166 | 0.0 | 6.4 | 0.00 | 0.00 | 0.00 | 67 | 1018.2 |
| 20260902155106 | 31 | 258 | 0.0 | 3.2 | 0.00 | 0.00 | 0.00 | 65 | 1018.2 |
| 20260902154600 | 31 | 258 | 1.6 | 4.8 | 0.00 | 0.00 | 0.00 | 69 | 1018.2 |
| 20260902154054 | 31 | 238 | 1.6 | 6.4 | 0.00 | 0.00 | 0.00 | 68 | 1018.2 |
| 20260902153549 | 31 | 66 | 1.6 | 6.4 | 0.00 | 0.00 | 0.00 | 71 | 1018.2 |
| 20260902153043 | 30 | 148 | 0.0 | 3.2 | 0.00 | 0.00 | 0.00 | 69 | 1018.2 |
| 20260902152539 | 30 | 166 | 1.6 | 4.8 | 0.00 | 0.00 | 0.00 | 70 | 1018.3 |
| 20260902152030 | 30 | 300 | 1.6 | 4.8 | 0.00 | 0.00 | 0.00 | 70 | 1018.3 |
| 20260902151525 | 30 | 254 | 3.2 | 4.8 | 0.00 | 0.00 | 0.00 | 70 | 1018.3 |
| 20260902151018 | 29 | 267 | 3.2 | 6.4 | 0.00 | 0.00 | 0.00 | 72 | 1018.5 |
| 20260902150729 | 29 | 287 | 1.6 | 6.4 | 0.00 | 0.00 | 0.00 | 74 | 1018.4 |
| 20260902150006 | 29 | 262 | 1.6 | 4.8 | 0.00 | 0.00 | 0.00 | 72 | 1018.4 |
| 20260902145500 | 29 | 263 | 0.0 | 3.2 | 0.00 | 0.00 | 0.00 | 72 | 1018.4 |
| 20260902145000 | 28 | 114 | 1.6 | 4.8 | 0.00 | 0.00 | 0.00 | 74 | 1018.5 |
| 20260902144500 | 28 | 44 | 1.6 | 4.8 | 0.00 | 0.00 | 0.00 | 74 | 1018.4 |
| 20260902144001 | 28 | 115 | 0.0 | 3.2 | 0.00 | 0.00 | 0.00 | 74 | 1018.3 |
| 20260902143459 | 28 | 80 | 0.0 | 3.2 | 0.00 | 0.00 | 0.00 | 75 | 1018.3 |
| 20260902143222 | 28 | 76 | 0.0 | 1.6 | 0.00 | 0.00 | 0.00 | 75 | 1018.2 |
| 20260902142722 | 28 | 76 | 0.0 | 4.8 | 0.00 | 0.00 | 0.00 | 78 | 1018.3 |
| 20260902141957 | 27 | 76 | 0.0 | 4.8 | 0.00 | 0.00 | 0.00 | 79 | 1018.3 |
| 20260902141458 | 27 | 30 | 0.0 | 3.2 | 0.00 | 0.00 | 0.00 | 80 | 1018.3 |
| 20260902141438 | 27 | 30 | 0.0 | 3.2 | 0.00 | 0.00 | 0.00 | 79 | 1018.2 |
| 20260902140454 | 27 | 43 | 0.0 | 3.2 | 0.00 | 0.00 | 0.00 | 81 | 1018.2 |
| 20260902135951 | 27 | 44 | 0.0 | 6.4 | 0.00 | 0.00 | 0.00 | 81 | 1018.2 |
| 20260902135451 | 26 | 44 | 0.0 | 6.4 | 0.00 | 0.00 | 0.00 | 82 | 1018.2 |
| 20260902135213 | 26 | 85 | 0.0 | 1.6 | 0.00 | 0.00 | 0.00 | 85 | 1018.1 |
| 20260902134451 | 25 | 85 | 0.0 | 1.6 | 0.00 | 0.00 | 0.00 | 86 | 1018.2 |
| 20260902134218 | 25 | 48 | 0.0 | 3.2 | 0.00 | 0.00 | 0.00 | 86 | 1018.2 |
| 20260902133452 | 25 | 48 | 0.0 | 3.2 | 0.00 | 0.00 | 0.00 | 86 | 1018.2 |
| 20260902132947 | 25 | 51 | 0.0 | 1.6 | 0.00 | 0.00 | 0.00 | 87 | 1018.1 |
| 20260902132448 | 25 | 51 | 0.0 | 1.6 | 0.00 | 0.00 | 0.00 | 88 | 1018.0 |
| 20260902131948 | 24 | 51 | 0.0 | 1.6 | 0.00 | 0.00 | 0.00 | 91 | 1018.1 |
| 20260902131448 | 24 | 51 | 0.0 | 3.2 | 0.00 | 0.00 | 0.00 | 91 | 1018.1 |
| 20260902130948 | 24 | 51 | 0.0 | 3.2 | 0.00 | 0.00 | 0.00 | 91 | 1018.1 |
| 20260902130447 | 24 | 38 | 0.0 | 3.2 | 0.00 | 0.00 | 0.00 | 91 | 1018.1 |
| 20260902125948 | 23 | 77 | 0.0 | 0.0 | 0.00 | 0.00 | 0.00 | 91 | 1018.0 |
| 20260902125449 | 23 | 77 | 0.0 | 0.0 | 0.00 | 0.00 | 0.00 | 92 | 1018.0 |
| 20260902124948 | 23 | 78 | 0.0 | 0.0 | 0.00 | 0.00 | 0.00 | 92 | 1018.0 |
| 20260902124448 | 23 | 77 | 0.0 | 0.0 | 0.00 | 0.00 | 0.00 | 91 | 1017.9 |
| 20260902123949 | 23 | 77 | 0.0 | 0.0 | 0.00 | 0.00 | 0.00 | 91 | 1018.0 |
| 20260902123448 | 23 | 77 | 0.0 | 0.0 | 0.00 | 0.00 | 0.00 | 91 | 1018.1 |
| 20260902122948 | 23 | 77 | 0.0 | 0.0 | 0.00 | 0.00 | 0.00 | 91 | 1018.1 |
| 20260902122448 | 23 | 77 | 0.0 | 0.0 | 0.00 | 0.00 | 0.00 | 91 | 1018.1 |
| 20260902121947 | 23 | 77 | 0.0 | 0.0 | 0.00 | 0.00 | 0.00 | 90 | 1018.2 |
| 20260902121710 | 23 | 77 | 0.0 | 0.0 | 0.00 | 0.00 | 0.00 | 90 | 1018.1 |
| 20260902120946 | 23 | 77 | 0.0 | 0.0 | 0.00 | 0.00 | 0.00 | 90 | 1018.1 |
| 20260902120446 | 23 | 77 | 0.0 | 0.0 | 0.00 | 0.00 | 0.00 | 90 | 1018.1 |
| 20260902115947 | 23 | 77 | 0.0 | 0.0 | 0.00 | 0.00 | 0.00 | 89 | 1018.0 |
| 20260902115449 | 22 | 78 | 0.0 | 0.0 | 0.00 | 0.00 | 0.00 | 89 | 1018.0 |
| 20260902114947 | 22 | 78 | 0.0 | 0.0 | 0.00 | 0.00 | 0.00 | 89 | 1017.9 |
| 20260902114445 | 22 | 78 | 0.0 | 0.0 | 0.00 | 0.00 | 0.00 | 89 | 1017.9 |
| 20260902113947 | 22 | 77 | 0.0 | 0.0 | 0.00 | 0.00 | 0.00 | 89 | 1017.8 |
| 20260902113443 | 23 | 78 | 0.0 | 0.0 | 0.00 | 0.00 | 0.00 | 89 | 1017.8 |
| 20260902113157 | 23 | 78 | 0.0 | 0.0 | 0.00 | 0.00 | 0.00 | 89 | 1017.9 |
| 20260902112439 | 23 | 78 | 0.0 | 0.0 | 0.00 | 0.00 | 0.00 | 89 | 1017.9 |
| 20260902111939 | 23 | 78 | 0.0 | 0.0 | 0.00 | 0.00 | 0.00 | 89 | 1017.9 |
| 20260902111703 | 23 | 77 | 0.0 | 0.0 | 0.00 | 0.00 | 0.00 | 88 | 1017.9 |
| 20260902110937 | 23 | 78 | 0.0 | 0.0 | 0.00 | 0.00 | 0.00 | 88 | 1017.9 |
| 20260902110438 | 23 | 77 | 0.0 | 0.0 | 0.00 | 0.00 | 0.00 | 88 | 1017.9 |
| 20260902105936 | 23 | 78 | 0.0 | 0.0 | 0.00 | 0.00 | 0.00 | 88 | 1017.9 |
| 20260902105436 | 23 | 78 | 0.0 | 0.0 | 0.00 | 0.00 | 0.00 | 88 | 1017.8 |
| 20260902104936 | 23 | 78 | 0.0 | 0.0 | 0.00 | 0.00 | 0.00 | 88 | 1017.8 |
| 20260902104429 | 23 | 78 | 0.0 | 0.0 | 0.00 | 0.00 | 0.00 | 88 | 1017.8 |
| 20260902103923 | 23 | 78 | 0.0 | 0.0 | 0.00 | 0.00 | 0.00 | 88 | 1017.8 |
| 20260902103417 | 23 | 78 | 0.0 | 0.0 | 0.00 | 0.00 | 0.00 | 87 | 1017.8 |
| 20260902102912 | 23 | 78 | 0.0 | 0.0 | 0.00 | 0.00 | 0.00 | 87 | 1017.7 |
| 20260902102405 | 23 | 78 | 0.0 | 0.0 | 0.00 | 0.00 | 0.00 | 87 | 1017.6 |
| 20260902101900 | 23 | 78 | 0.0 | 0.0 | 0.00 | 0.00 | 0.00 | 87 | 1017.6 |
| 20260902101353 | 23 | 78 | 0.0 | 0.0 | 0.00 | 0.00 | 0.00 | 87 | 1017.6 |
| 20260902100846 | 23 | 78 | 0.0 | 0.0 | 0.00 | 0.00 | 0.00 | 87 | 1017.6 |
| 20260902100341 | 23 | 77 | 0.0 | 0.0 | 0.00 | 0.00 | 0.00 | 87 | 1017.5 |
| 20260902095835 | 23 | 77 | 0.0 | 0.0 | 0.00 | 0.00 | 0.00 | 86 | 1017.5 |
| 20260902095329 | 23 | 78 | 0.0 | 0.0 | 0.00 | 0.00 | 0.00 | 86 | 1017.5 |
| 20260902094823 | 23 | 78 | 0.0 | 0.0 | 0.00 | 0.00 | 0.00 | 86 | 1017.4 |
| 20260902094317 | 23 | 78 | 0.0 | 0.0 | 0.00 | 0.00 | 0.00 | 86 | 1017.4 |
| 20260902093810 | 23 | 77 | 0.0 | 0.0 | 0.00 | 0.00 | 0.00 | 86 | 1017.4 |
| 20260902093304 | 24 | 77 | 0.0 | 0.0 | 0.00 | 0.00 | 0.00 | 86 | 1017.4 |
| 20260902092757 | 24 | 77 | 0.0 | 0.0 | 0.00 | 0.00 | 0.00 | 86 | 1017.4 |
| 20260902092251 | 24 | 78 | 0.0 | 0.0 | 0.00 | 0.00 | 0.00 | 86 | 1017.4 |
| 20260902091745 | 24 | 78 | 0.0 | 0.0 | 0.00 | 0.00 | 0.00 | 86 | 1017.3 |
| 20260902091732 | 24 | 78 | 0.0 | 0.0 | 0.00 | 0.00 | 0.00 | 86 | 1017.2 |
| 20260902090740 | 24 | 78 | 0.0 | 0.0 | 0.00 | 0.00 | 0.00 | 86 | 1017.2 |
| 20260902090240 | 24 | 77 | 0.0 | 0.0 | 0.00 | 0.00 | 0.00 | 86 | 1017.1 |
| 20260902090001 | 24 | 77 | 0.0 | 0.0 | 0.00 | 0.00 | 0.00 | 86 | 1017.1 |
| 20260902085236 | 24 | 78 | 0.0 | 0.0 | 0.00 | 0.00 | 0.00 | 86 | 1017.1 |
| 20260902084954 | 24 | 78 | 0.0 | 1.6 | 0.00 | 0.00 | 0.00 | 86 | 1017.1 |
| 20260902084551 | 24 | 77 | 0.0 | 1.6 | 0.00 | 0.00 | 0.00 | 86 | 1017.1 |
| 20260902084450 | 24 | 78 | 0.0 | 1.6 | 0.00 | 0.00 | 0.00 | 85 | 1017.1 |
| 20260902083455 | 24 | 77 | 0.0 | 1.6 | 0.00 | 0.00 | 0.00 | 85 | 1017.1 |
| 20260902082729 | 24 | 77 | 0.0 | 1.6 | 0.00 | 0.00 | 0.00 | 85 | 1017.2 |
| 20260902082229 | 24 | 78 | 0.0 | 0.0 | 0.00 | 0.00 | 0.00 | 85 | 1017.2 |
| 20260902081946 | 24 | 78 | 0.0 | 1.6 | 0.00 | 0.00 | 0.00 | 85 | 1017.1 |
| 20260902081226 | 24 | 78 | 0.0 | 1.6 | 0.00 | 0.00 | 0.00 | 85 | 1017.1 |
| 20260902080949 | 24 | 77 | 0.0 | 0.0 | 0.00 | 0.00 | 0.00 | 85 | 1017.2 |
| 20260902080225 | 24 | 77 | 0.0 | 0.0 | 0.00 | 0.00 | 0.00 | 84 | 1017.3 |
| 20260902075723 | 24 | 78 | 0.0 | 0.0 | 0.00 | 0.00 | 0.00 | 84 | 1017.3 |
| 20260902075222 | 24 | 77 | 0.0 | 0.0 | 0.00 | 0.00 | 0.00 | 84 | 1017.3 |
| 20260902074944 | 24 | 78 | 0.0 | 1.6 | 0.00 | 0.00 | 0.00 | 84 | 1017.2 |
| 20260902074223 | 24 | 77 | 0.0 | 1.6 | 0.00 | 0.00 | 0.00 | 83 | 1017.2 |
| 20260902073945 | 24 | 77 | 0.0 | 1.6 | 0.00 | 0.00 | 0.00 | 84 | 1017.2 |
| 20260902073217 | 25 | 77 | 0.0 | 1.6 | 0.00 | 0.00 | 0.00 | 83 | 1017.2 |
| 20260902072711 | 25 | 78 | 0.0 | 0.0 | 0.00 | 0.00 | 0.00 | 83 | 1017.2 |
| 20260902072211 | 25 | 77 | 0.0 | 0.0 | 0.00 | 0.00 | 0.00 | 83 | 1017.2 |
| 20260902071712 | 25 | 77 | 0.0 | 1.6 | 0.00 | 0.00 | 0.00 | 83 | 1017.2 |
| 20260902071210 | 25 | 78 | 0.0 | 1.6 | 0.00 | 0.00 | 0.00 | 84 | 1017.1 |
| 20260902070711 | 25 | 77 | 0.0 | 0.0 | 0.00 | 0.00 | 0.00 | 84 | 1017.1 |
| 20260902070700 | 25 | 77 | 0.0 | 1.6 | 0.00 | 0.00 | 0.00 | 83 | 1017.0 |
| 20260902065710 | 25 | 77 | 0.0 | 1.6 | 0.00 | 0.00 | 0.00 | 83 | 1016.9 |
| 20260902065211 | 25 | 78 | 0.0 | 0.0 | 0.00 | 0.00 | 0.00 | 82 | 1016.8 |
| 20260902064710 | 25 | 77 | 0.0 | 1.6 | 0.00 | 0.00 | 0.00 | 81 | 1016.9 |
| 20260902064208 | 25 | 78 | 0.0 | 1.6 | 0.00 | 0.00 | 0.00 | 81 | 1016.8 |
| 20260902063708 | 25 | 78 | 0.0 | 1.6 | 0.00 | 0.00 | 0.00 | 82 | 1016.8 |
| 20260902063427 | 25 | 78 | 0.0 | 3.2 | 0.00 | 0.00 | 0.00 | 82 | 1016.8 |
| 20260902062708 | 25 | 77 | 0.0 | 3.2 | 0.00 | 0.00 | 0.00 | 82 | 1016.7 |
| 20260902062207 | 25 | 78 | 0.0 | 3.2 | 0.00 | 0.00 | 0.00 | 82 | 1016.6 |
| 20260902061707 | 25 | 78 | 1.6 | 3.2 | 0.00 | 0.00 | 0.00 | 83 | 1016.6 |
| 20260902061207 | 25 | 67 | 0.0 | 1.6 | 0.00 | 0.00 | 0.00 | 84 | 1016.5 |
| 20260902060705 | 25 | 67 | 0.0 | 4.8 | 0.00 | 0.00 | 0.00 | 84 | 1016.5 |
| 20260902060208 | 25 | 69 | 0.0 | 4.8 | 0.00 | 0.00 | 0.00 | 83 | 1016.6 |
| 20260902055921 | 25 | 345 | 0.0 | 3.2 | 0.00 | 0.00 | 0.00 | 83 | 1016.5 |
| 20260902055412 | 25 | 165 | 0.0 | 3.2 | 0.00 | 0.00 | 0.00 | 84 | 1016.6 |
| 20260902054646 | 25 | 141 | 0.0 | 3.2 | 0.00 | 0.00 | 0.00 | 84 | 1016.6 |
| 20260902054407 | 25 | 191 | 0.0 | 3.2 | 0.00 | 0.00 | 0.00 | 84 | 1016.6 |
| 20260902053903 | 25 | 236 | 1.6 | 6.4 | 0.00 | 0.00 | 0.00 | 85 | 1016.5 |
| 20260902053128 | 25 | 257 | 1.6 | 6.4 | 0.00 | 0.00 | 0.00 | 85 | 1016.4 |
| 20260902052628 | 25 | 42 | 0.0 | 6.4 | 0.00 | 0.00 | 0.00 | 85 | 1016.4 |
| 20260902052351 | 25 | 250 | 0.0 | 3.2 | 0.00 | 0.00 | 0.00 | 84 | 1016.4 |
| 20260902051626 | 25 | 211 | 0.0 | 6.4 | 0.00 | 0.00 | 0.00 | 84 | 1016.3 |
| 20260902051350 | 25 | 285 | 0.0 | 6.4 | 0.00 | 0.00 | 0.00 | 84 | 1016.3 |
| 20260902050623 | 25 | 231 | 0.0 | 1.6 | 0.00 | 0.00 | 0.00 | 85 | 1016.4 |